This demonstration page uses our WeatherBlox Daily Observations layout. Learn more.

Left ArrowRight Arrow

39.29038, -76.61219

Hourly Observations for January 5, 2015

Temp ( °F °C ) Dew Point ( °F °C ) Humidity (%) Winds ( mph kmh ) Pressure ( in mb ) Visibility ( mi km ) Precip ( " mm )
12:54 am 00:54 undefined 47 8.3 28 -2.2 48 48 undefined N/A 29.96 1015 N/A 0.00 0.00
1:54 am 01:54 undefined 45 7.2 26 -3.3 48 48 undefined N/A 29.99 1016 N/A 0.00 0.00
2:54 am 02:54 undefined 42 5.6 23 -5 47 47 undefined N/A 30.03 1017 N/A 0.00 0.00
3:54 am 03:54 undefined 41 5 21 -6.1 45 45 undefined N/A 30.07 1018 N/A 0.00 0.00
4:54 am 04:54 undefined 41 5 21 -6.1 45 45 undefined N/A 30.07 1018 N/A 0.00 0.00
5:54 am 05:54 undefined 40 4.4 21 -6.1 47 47 undefined N/A 30.12 1020 N/A 0.00 0.00
6:54 am 06:54 undefined 40 4.4 20 -6.7 45 45 undefined N/A 30.16 1021 N/A 0.00 0.00
7:54 am 07:54 undefined 39 3.9 19 -7.2 45 45 undefined N/A 30.20 1023 N/A 0.00 0.00
8:54 am 08:54 undefined 39 3.9 18 -7.8 43 43 undefined N/A 30.23 1024 N/A 0.00 0.00
9:54 am 09:54 undefined 40 4.4 15 -9.4 36 36 undefined N/A 30.26 1025 N/A 0.00 0.00
10:54 am 10:54 undefined 38 3.3 14 -10 37 37 undefined N/A 30.28 1025 N/A 0.00 0.00
11:54 am 11:54 undefined 38 3.3 11 -11.7 33 33 undefined N/A 30.28 1025 N/A 0.00 0.00
1:54 pm 13:54 undefined 36 2.2 3 -16.1 25 25 undefined N/A 30.30 1026 N/A 0.00 0.00
2:54 pm 14:54 undefined 36 2.2 6 -14.4 28 28 undefined N/A 30.29 1026 N/A 0.00 0.00
3:54 pm 15:54 undefined 34 1.1 2 -16.7 25 25 undefined N/A 30.34 1027 N/A 0.00 0.00
4:54 pm 16:54 undefined 33 0.6 0 -17.8 24 24 undefined N/A 30.36 1028 N/A 0.00 0.00
5:54 pm 17:54 undefined 31 -0.6 0 -17.8 26 26 undefined N/A 30.39 1029 N/A 0.00 0.00
6:54 pm 18:54 undefined 30 -1.1 1 -17.2 29 29 undefined N/A 30.42 1030 N/A 0.00 0.00
7:54 pm 19:54 undefined 29 -1.7 1 -17.2 30 30 undefined N/A 30.43 1031 N/A 0.00 0.00
8:54 pm 20:54 undefined 28 -2.2 2 -16.7 32 32 undefined N/A 30.46 1031 N/A 0.00 0.00
9:54 pm 21:54 undefined 27 -2.8 2 -16.7 34 34 undefined N/A 30.46 1032 N/A 0.00 0.00
10:54 pm 22:54 undefined 27 -2.8 1 -17.2 32 32 undefined N/A 30.45 1031 N/A 0.00 0.00
11:54 pm 23:54 undefined 26 -3.3 0 -17.8 32 32 undefined N/A 30.52 1034 N/A 0.00 0.00

Powered by AerisWeather